Location: *
(51.3833°S, 179.4833°W)
Time: 01:48:59
(UTC+00:00)

Daily predictions for brighter satellites

Satellite Brightness Start Highest point End
(mag) Time Altitude Azimuth Time Altitude Azimuth Time Altitude Azimuth
Cosmos 1110 Rocket 4.1 04:36:35 10° NNW 04:41:56 82° ENE 04:47:19 10° SSE
Cosmos 2151 4.4 04:38:47 10° NE 04:41:56 20° E 04:45:08 10° SE
PSLV R/B 3.5 04:38:42 10° SSE 04:42:59 71° ENE 04:47:13 10° N
Cosmos 1607 4.2 04:37:07 10° NNW 04:43:14 56° ENE 04:49:28 10° SE
USA 308 3.0 04:39:13 10° WSW 04:43:29 86° NNW 04:47:44 10° ENE
SL-16 R/B 3.4 04:40:40 10° SSW 04:45:06 22° SE 04:49:29 10° E
CZ-2C R/B 2.9 04:42:50 10° SSE 04:46:59 86° ENE 04:51:03 10° NNW
Cosmos 1825 4.5 04:44:48 10° WNW 04:47:53 23° WSW 04:51:00 10° SSW
Spot 4 Rocket 4.4 04:45:40 10° SSE 04:50:54 70° WSW 04:56:05 10° NNW
Cosmos 1302 Rocket 4.3 04:46:16 10° N 04:51:17 48° ENE 04:56:24 10° SSE
SJ-6F 4.4 04:47:09 10° SSE 04:51:18 68° ENE 04:55:24 10° N
Cosmos 1331 Rocket 4.1 04:47:03 10° NNW 04:52:19 90° ENE 04:57:36 10° SSE
COSMOS 2406 4.0 04:48:40 10° N 04:53:44 34° ENE 04:58:50 10° SE
Cosmos 2237 Rocket 4.4 04:53:45 10° S 04:54:22 10° S 04:54:58 10° S
COSMO-SKYMED 1 2.6 04:50:32 10° NNE 04:54:54 75° ESE 04:59:22 10° S
Landsat 5 4.4 04:53:29 10° ENE 04:57:16 28° ESE 05:00:59 10° S
Cosmos 2173 Rocket 4.2 04:51:30 10° S 04:57:47 53° ESE 05:03:56 10° NNE
Cosmos 1782 3.4 04:55:18 10° S 04:59:02 35° ESE 05:02:43 10° NE
Cosmos 2016 Rocket 4.5 04:54:35 10° S 05:00:25 38° ESE 05:06:14 10° NE
Cosmos 1833 Rocket 2.9 04:55:49 10° N 05:01:22 59° ENE 05:06:59 10° SE
SJ-12 4.0 04:58:10 10° SSE 05:02:22 63° E 05:06:31 10° N
USA 305 3.4 05:00:34 10° WSW 05:04:46 63° NNW 05:08:56 10° NE
SeaSat 1 2.7 05:00:30 10° SSE 05:05:29 72° SW 05:10:26 10° NW
Cosmos 1486 Rocket 4.1 05:00:17 10° SSW 05:05:37 58° ESE 05:10:55 10° NE
Cosmos 2360 Rocket 3.7 05:02:36 10° SSW 05:06:27 18° SSE 05:09:28 13° ESE
Cosmos 1933 3.4 05:03:43 10° S 05:07:46 55° ESE 05:11:47 10° NNE
Cosmos 2278 4.0 05:02:38 10° SSW 05:08:11 46° SE 05:13:38 10° NE
Cosmos 1953 Rocket 3.9 05:04:17 10° NNW 05:08:41 71° WSW 05:13:09 10° S
Cosmos 1939 Rocket 3.9 05:06:10 10° SE 05:09:28 25° E 05:12:42 10° NNE
CZ-2C R/B 4.1 05:04:17 10° NNW 05:09:36 43° W 05:14:53 10° SSW
Lacrosse 5 rocket 2.0 05:05:43 10° WSW 05:09:37 37° S 05:12:32 15° ESE
Cosmos 1727 Rocket 4.0 05:04:43 10° N 05:10:57 73° E 05:17:13 10° SSE
Cosmos 192 4.4 05:06:46 10° NNW 05:11:42 67° ENE 05:16:42 10° SSE
Cosmos 1151 Rocket 4.2 05:11:56 10° SSE 05:15:26 22° ESE 05:18:52 10° ENE
YAOGAN 6 3.8 05:13:13 10° S 05:16:40 42° WSW 05:20:02 10° NW
Cosmos 1802 Rocket 4.1 05:13:41 10° S 05:20:07 60° ESE 05:26:30 10° NNE
Cosmos 1076 Rocket 3.6 05:15:52 10° N 05:20:10 57° E 05:24:30 10° SSE
Cosmos 1459 Rocket 3.9 05:15:05 10° S 05:21:19 72° ESE 05:27:35 10° NNE
Meteor 2-3 Rocket 3.8 05:19:05 10° N 05:24:39 62° E 05:30:20 10° SSE
USA 281 4.3 05:21:17 14° ESE 05:25:16 23° E 05:30:19 10° NNE
Cosmos 968 Rocket 4.3 05:20:08 10° SSW 05:25:21 56° WNW 05:30:30 10° N
Cosmos 2058 4.5 05:22:33 10° NW 05:26:27 36° WSW 05:30:24 10° S
ATLAS 2AS CENTAUR R/B 3.9 05:19:46 10° SW 05:26:28 49° WNW 05:33:34 10° NNE
Orbus 7S? 3.4 05:21:51 10° WSW 05:26:45 53° SSE 05:28:30 22° E
CZ-4B R/B 4.1 05:25:38 10° SSE 05:30:10 71° ENE 05:34:31 10° N
Envisat 3.9 05:25:47 10° S 05:30:47 50° WSW 05:35:44 10° NW
Cosmos 1812 2.8 05:27:16 10° S 05:31:08 55° ESE 05:34:55 10° NNE
Cosmos 2221 3.8 05:27:18 10° SSW 05:31:37 46° W 05:35:51 10° NNW
Cosmos 2100 Rocket 4.1 05:27:34 10° S 05:33:59 88° W 05:40:14 10° N
H-2A R/B 4.0 05:30:49 10° S 05:34:32 43° WSW 05:38:13 10° NW
CZ-4B R/B 3.9 05:34:47 22° E 05:35:06 23° E 05:38:12 10° NNE
Cosmos 1503 Rocket 4.0 05:30:21 10° SSW 05:35:34 61° ESE 05:40:44 10° NE
Cosmos 1842 Rocket 4.4 05:31:15 10° SSW 05:35:41 54° W 05:40:01 10° N
SJ 16-02 2.0 05:31:34 10° S 05:35:41 34° ESE 05:39:38 11° ENE
CZ-2C R/B 3.1 05:30:58 10° SSE 05:35:49 75° WSW 05:40:45 10° NNW
Cosmos 1980 Rocket 2.3 05:33:29 10° SSW 05:39:10 80° WNW 05:44:47 10° NNE
Cosmos 724 4.4 05:33:15 10° NNW 05:39:24 76° NE 05:44:23 17° SE
Meteor 2-6 Rocket 4.4 05:34:02 10° S 05:39:33 49° ESE 05:44:52 10° NE
SL-16 R/B 4.4 05:42:56 10° SSW 05:44:01 10° S 05:45:08 10° S
CZ-4C R/B 3.3 05:42:56 10° NE 05:46:02 39° ESE 05:49:15 10° S
USA 306 4.3 05:42:46 10° WSW 05:46:43 38° NW 05:50:37 10° NNE
Aureole 1 Rocket 4.3 05:39:49 10° SSW 05:47:23 79° WNW 05:53:11 10° NNE
Cosmos 2322 Rocket 2.8 05:43:22 10° SSW 05:48:40 36° SE 05:51:23 23° E
Lacrosse 4 Rocket 3.6 05:45:48 10° W 05:49:03 20° SSW 05:52:23 10° SSE
RESURS DK-1 2.8 05:45:57 10° SW 05:50:08 66° WNW 05:54:17 10° NNE
H-2A R/B 3.5 05:52:26 22° SE 05:52:26 22° SE 05:54:57 10° S
Cosmos 1900 4.4 05:47:13 10° SSW 05:52:01 53° SE 05:54:56 22° ENE
USA 307 4.2 05:48:03 10° WSW 05:52:01 40° NW 05:55:58 10° NNE
Cosmos 2369 4.4 05:49:02 10° SW 05:54:40 56° WNW 06:00:13 10° N
Cosmos 2082 Rocket 2.2 05:50:05 10° NNW 05:55:40 66° ENE 05:59:35 20° SE
Cosmos 1697 Rocket 4.5 05:51:31 10° SW 05:56:37 34° WNW 06:01:40 10° N
H-2A R/B 2.3 05:55:24 20° SE 05:58:29 42° E 06:03:11 10° NNE
Cosmos 2333 Rocket 3.4 05:54:54 10° SSW 05:59:28 23° SE 06:00:00 23° SE
USA 215 3.5 05:55:13 10° NE 06:01:49 72° NW 06:08:28 10° WSW
ERBS 2.2 05:59:03 10° WSW 06:02:13 71° NW 06:03:04 43° NE
Cosmos 2061 Rocket 4.0 05:56:58 10° S 06:03:29 84° E 06:09:50 10° N
Cosmos 1725 Rocket 4.0 05:57:29 10° S 06:03:51 87° E 06:10:10 10° N
Cosmos 2123 Rocket 4.0 05:57:50 10° N 06:04:11 75° E 06:10:35 10° SSE
Lacrosse 5 1.9 05:59:34 10° WSW 06:04:42 63° SSE 06:06:47 35° E
Cosmos 1862 3.4 06:02:19 10° N 06:06:13 52° E 06:07:13 41° SE
CORIOLIS 4.4 06:05:10 20° SSE 06:08:45 46° E 06:14:02 10° N
ADEOS 3.5 06:03:29 10° SSE 06:08:49 72° ENE 06:14:04 10° N
Cosmos 2219 Rocket 3.5 06:04:35 10° SSW 06:08:49 21° SSE 06:08:49 21° SSE
FengYun 1-2 T 4.1 06:03:20 10° SSE 06:08:59 76° ENE 06:14:32 10° N
NOAA 12 4.0 06:04:05 10° SSE 06:09:30 86° ENE 06:14:50 10° NNW
Cosmos 1340 Rocket 4.5 06:06:28 10° NW 06:10:12 34° WSW 06:14:02 10° S
Meteor 1-31 Rocket 3.9 06:08:47 10° S 06:12:39 46° WSW 06:16:27 10° NW
Cosmos 2084 4.1 06:11:36 10° NNW 06:16:10 43° NE 06:16:41 41° ENE
Cosmos 2151 3.8 06:14:35 10° NNW 06:18:50 51° WSW 06:23:08 10° S
Cosmos 967 Rocket 4.4 06:14:24 10° NNW 06:20:35 65° ENE 06:23:15 35° SE
Cosmos 1867 3.8 06:17:46 10° SW 06:23:03 49° SE 06:23:54 45° ESE
IRIDIUM 103 4.4 06:20:10 10° NNE 06:25:15 52° E 06:27:48 28° SSE
AQUARIUS 4.1 06:25:00 50° SE 06:25:56 63° ENE 06:30:26 10° N
SL-16 R/B 2.1 06:24:23 10° SSW 06:30:10 77° ESE 06:33:23 27° NE
NOAA 6 4.0 06:29:17 44° SE 06:30:38 59° E 06:35:44 10° N
Cosmos 2237 4.1 06:30:59 10° SSW 06:36:44 65° SE 06:37:59 51° ENE
IRAS Rocket 4.4 06:37:23 51° ESE 06:37:27 51° ESE 06:42:53 10° S
COSMOS 2406 3.9 06:32:18 10° NW 06:37:51 52° SW 06:41:29 22° SSE
Cosmos 1777 Rocket 4.0 06:32:48 10° SSW 06:38:07 83° WNW 06:42:24 16° NNE
Cosmos 1328 Rocket 3.5 06:36:20 10° S 06:40:22 71° SSE 06:40:22 71° SSE
Cosmos 2237 Rocket 4.2 06:37:58 10° S 06:40:11 14° SSE 06:40:11 14° SSE
IRIDIUM 106 4.2 06:38:16 10° N 06:43:30 72° E 06:45:56 33° SSE
Cosmos 1939 Rocket 4.3 06:41:38 15° S 06:44:26 35° WSW 06:48:00 10° NW
Cosmos 1833 Rocket 4.1 06:40:30 10° WNW 06:45:38 34° SW 06:49:23 17° S
SMAP 3.2 06:44:41 34° S 06:46:43 76° WSW 06:51:25 10° NNW
Lacrosse 5 rocket 2.0 06:45:03 10° WSW 06:48:05 47° SW 06:48:05 47° SW
Cosmos 2360 Rocket 2.3 06:46:05 10° SSW 06:51:15 56° SSE 06:51:15 56° SSE
COSMOS 2428 4.1 06:47:14 10° SSW 06:50:29 24° SSE 06:50:29 24° SSE
Cosmos 2233 Rocket 4.4 06:45:58 10° SSW 06:52:13 66° W 06:58:28 10° N
Cosmos 1151 Rocket 3.9 06:48:57 10° SSW 06:53:18 51° W 06:57:33 10° N
Cosmos 1447 Rocket 4.3 06:51:26 10° N 06:57:37 84° E 07:03:29 12° S
Meteor 1-27 Rocket 3.6 06:57:40 10° SSW 07:03:19 87° W 07:04:58 48° N
Cosmos 1891 Rocket 4.4 06:58:53 10° S 07:05:22 77° ESE 07:06:48 56° NNE
Cosmos 1513 Rocket 4.3 07:01:56 10° S 07:08:17 76° E 07:08:27 76° E
CZ-4B R/B 4.3 07:10:49 34° W 07:10:49 34° W 07:13:48 10° NW
USA 281 3.1 07:08:10 44° SSE 07:10:32 88° WSW 07:17:12 10° NNW
ARGOS 3.3 07:12:25 67° NNW 07:12:25 67° NNW 07:17:04 10° NNW
SJ 16-02 3.0 07:10:12 10° SW 07:14:13 34° WNW 07:16:45 19° NNW
Cosmos 1464 Rocket 4.1 07:18:05 10° S 07:23:38 67° S 07:23:38 67° S
H-2A R/B 4.1 07:29:29 24° SSW 07:29:29 24° SSW 07:31:24 10° SSW
Cosmos 2322 Rocket 2.7 07:27:23 10° SW 07:33:00 55° WNW 07:33:16 54° WNW
H-2A R/B 3.5 07:36:01 25° SSW 07:37:50 33° WSW 07:42:13 10° NW
Cosmos 2082 Rocket 3.7 07:35:14 10° WNW 07:40:12 31° SW 07:41:27 28° SSW
Cosmos 2333 Rocket 3.5 07:38:51 10° SSW 07:42:01 34° SSW 07:42:01 34° SSW
Lacrosse 5 3.3 07:42:43 10° WSW 07:46:00 35° W 07:46:00 35° W
Cosmos 2219 Rocket 3.9 07:48:08 10° SSW 07:50:32 26° SSW 07:50:32 26° SSW
SL-16 R/B 4.3 08:09:25 10° SW 08:13:40 22° W 08:15:20 19° NW
Cosmos 2360 Rocket 4.3 08:30:34 10° SW 08:33:03 22° WSW 08:33:03 22° WSW
